Location: Carroll
(32.4774°N, 95.5202°W)
Time: 19:20:33
(UTC+02:00)

Daily predictions for brighter satellites

Satellite Brightness Start Highest point End
(mag) Time Altitude Azimuth Time Altitude Azimuth Time Altitude Azimuth
Aurora 2 Rocket 3.5 12:07:02 19° SSE 12:07:02 19° SSE 12:08:46 10° SE
CZ-2C R/B 3.7 12:01:51 10° SSE 12:06:35 88° ENE 12:11:15 10° NNW
Cosmos 2195 Rocket 4.4 12:00:40 10° N 12:06:46 73° W 12:12:49 10° S
Cosmos 1544 3.1 12:05:43 38° SW 12:06:50 58° W 12:10:26 10° N
Cosmos 1697 Rocket 4.2 12:05:53 18° W 12:07:47 21° WNW 12:12:01 10° N
RESURS DK-1 4.3 12:04:13 10° N 12:07:57 32° ENE 12:11:41 10° SE
Milstar 3 Cent rocket 2.7 12:05:19 25° WSW 12:08:36 62° S 12:17:55 10° ESE
BREEZE-M DEB (TANK) 4.2 12:06:01 18° W 12:08:43 29° NW 12:12:22 10° NNE
In-Cosmos 22 4.2 12:06:04 10° NNW 12:11:11 53° W 12:15:48 13° SSW
IRS-1C Rocket 4.2 12:06:34 10° N 12:11:43 57° WNW 12:15:03 22° SW
DELTA 2 R/B (1) 3.9 12:09:50 25° SW 12:12:59 57° SSE 12:18:28 10° ENE
ADEOS II 3.5 12:09:14 10° NNE 12:14:05 37° E 12:18:54 10° SSE
Cosmos 1980 Rocket 3.2 12:13:09 22° WSW 12:15:38 30° WNW 12:20:34 10° N
Cosmos 2360 Rocket 3.9 12:11:25 10° SSE 12:16:16 31° ESE 12:21:07 10° NE
GEOS 3 Rocket 3.9 12:15:29 10° S 12:20:26 43° WSW 12:25:21 10° NW
CZ-4B DEB 4.2 12:14:55 10° N 12:20:27 75° WNW 12:25:32 12° SSW
Cosmos 1674 2.6 12:19:39 10° N 12:23:26 89° E 12:27:10 10° S
Cosmos 372 Rocket 4.1 12:20:23 10° NNW 12:25:29 77° ENE 12:30:34 10° SSE
Cosmos 2322 Rocket 2.2 12:22:19 17° SSW 12:26:38 66° WNW 12:32:14 10° NNE
ARGOS Delta rocket 3.9 12:23:14 10° N 12:28:15 64° WNW 12:32:46 11° SSW
Cosmos 1470 3.2 12:29:54 18° SSW 12:32:32 43° W 12:36:19 10° N
GRACE-1 3.9 12:29:46 10° S 12:32:37 82° E 12:35:30 10° N
GRACE-2 3.9 12:30:11 10° S 12:33:02 83° E 12:35:55 10° N
Cosmos 1125 Rocket 3.7 12:28:07 10° NNW 12:33:06 48° WSW 12:38:04 10° S
Cosmos 2151 3.3 12:29:19 10° N 12:33:37 69° E 12:37:53 10° SSE
Cosmos 1500 Rocket 3.8 12:29:41 10° NNW 12:33:54 48° W 12:38:04 10° SSW
CZ-4B R/B 3.4 12:34:38 10° N 12:38:14 37° WNW 12:40:59 14° SW
Cosmos 1437 4.2 12:37:20 10° NW 12:39:56 21° W 12:41:23 16° SW
MOZ.5/SAFIR/RUBIN 5/SL-8 4.2 12:35:57 10° S 12:40:25 43° W 12:44:54 10° NNW
Okean O Rocket 2.9 12:37:38 10° NNW 12:41:13 25° WNW 12:44:05 14° WSW
Cosmos 1428 Rocket 4.4 12:35:20 10° NNW 12:41:25 68° W 12:47:26 10° S
Resurs 1-4 Rocket 4.1 12:40:31 10° NW 12:42:11 11° WNW 12:43:51 10° W
Meteor PRIRODA 3.9 12:40:46 10° NNE 12:44:25 68° E 12:48:04 10° S
CSL-04 DEB 4.3 12:41:37 10° NNE 12:45:33 87° WNW 12:49:30 10° SSW
ADEOS Rocket 3.5 12:40:36 10° NNE 12:47:17 79° ESE 12:54:38 10° S
CZ-3 R/B 3.0 12:27:44 12° WSW 12:52:56 64° S 12:59:11 10° E
Cosmos 2221 2.5 12:51:07 10° SSW 12:55:19 61° W 12:59:34 10° N
Delta 128 4.2 12:51:27 11° WSW 12:55:37 47° S 13:00:30 10° E
SL-16 R/B 4.2 12:55:41 10° WSW 12:57:16 11° W 12:58:51 10° WNW
SL-16 R/B 2.9 12:54:18 10° SW 12:59:28 36° WNW 13:04:41 10° N
COSMOS 2428 4.2 12:59:49 10° S 13:04:58 38° ESE 13:10:09 10° NE
Thor Agena Rocket 4.1 13:00:52 10° SSW 13:05:25 34° W 13:09:59 10° NW
Meteor 1-31 Rocket 2.9 13:03:46 10° NNE 13:07:40 83° ESE 13:11:31 10° S
Cosmos 1680 Rocket 4.0 13:04:37 10° S 13:09:45 66° ESE 13:14:57 10° NNE
